Location: Bakhuizen
(52.8696°N, 5.4575°E)
Time: 08:02:15
(UTC+00:00)

Cosmos 44 Rocket - Pass Details

Date: 11 May 2021
Orbit: 636 x 754 km, 65.1° (Epoch: 15 June)

Event Time Altitude Azimuth Distance (km) Brightness Sun altitude
Rises 23:20:17 0° 316° (NW) 3,216 7.5 -18.9°
Reaches altitude 10° 23:22:42 10° 318° (NW) 2,288 6.7 -18.9°
Maximum altitude 23:27:59 75° 44° (NE) 780 3.6 -19.0°
Enters shadow 23:31:23 22° 128° (SE) 1,597 4.8 -19.0°
